Location: Observatoire de l'Aigle
(47.0607°N, 71.3152°W)
Time: 17:15:32
(UTC-05:00)

Daily predictions for brighter satellites

Satellite Brightness Start Highest point End
(mag) Time Altitude Azimuth Time Altitude Azimuth Time Altitude Azimuth
Meteor 1-12 Rocket 4.4 16:21:02 10° N 16:26:46 56° ENE 16:32:33 10° SSE
Cosmos 2366 rocket 4.1 16:20:40 10° N 16:26:58 60° ENE 16:33:09 10° SSE
CZ-3B DEB 2.3 16:23:46 10° SSW 16:27:10 55° SE 16:35:32 10° ENE
Cosmos 1812 3.2 16:26:14 10° SSE 16:29:52 41° E 16:33:33 10° NNE
MSX 4.4 16:26:56 10° SE 16:32:00 33° ENE 16:37:04 10° N
CZ-4 R/B 1.7 16:29:40 10° SE 16:33:39 46° ENE 16:37:35 10° N
SPOT 3 Rocket 3.8 16:28:49 10° SE 16:33:44 45° ENE 16:38:38 10° N
Tiangong 1 2.8 16:31:33 10° SW 16:34:05 24° SSE 16:36:37 10° ESE
ISS -2.6 16:31:39 10° W 16:34:49 42° NNW 16:37:59 10° ENE
COSMOS 2487 2.6 16:32:51 10° NNW 16:36:23 51° ENE 16:39:53 10° SE
USA 32 4.0 16:31:24 10° S 16:36:33 67° E 16:41:45 10° N
Cosmos 2218 Rocket 4.0 16:32:25 10° N 16:38:44 81° E 16:44:56 10° S
Cosmos 1844 3.8 16:34:25 10° SSW 16:39:59 82° WNW 16:45:36 10° NNE
AQUARIUS 4.4 16:37:32 10° SE 16:41:50 47° ENE 16:46:09 10° N
Cosmos 2297 4.4 16:40:05 10° S 16:45:09 35° ESE 16:50:14 10° NE
Cosmos 1544 Rocket 3.9 16:41:08 10° NNW 16:45:37 75° W 16:50:03 10° S
Cosmos 2278 Rocket 2.2 16:47:43 10° SSW 16:53:22 81° ESE 16:59:03 10° NNE
COSMO-SKYMED 1 4.1 16:50:50 11° NE 16:53:39 18° E 16:56:36 10° SE
Cosmos 1975 Rocket 4.3 16:49:55 10° SSW 16:54:01 42° WNW 16:58:10 10° N
SJ-12 3.9 16:53:44 10° SSE 16:57:49 73° ENE 17:01:58 10° N
Cosmos 1821 Rocket 4.5 16:54:28 10° N 17:00:01 35° ENE 17:05:32 10° SE
Cosmos 921 Rocket 3.7 16:57:19 10° SSE 17:01:10 33° E 17:04:43 12° NE
Cosmos 1666 4.0 16:58:39 10° NNE 17:01:36 20° ENE 17:04:32 10° ESE
Meteor 1-18 Rocket 4.3 16:57:30 10° S 17:03:12 89° E 17:09:03 10° NNE
Cosmos 1025 Rocket 4.3 17:00:02 10° SE 17:03:17 21° E 17:05:30 15° NE
Thor Agena Rocket 3.7 16:58:07 10° NNE 17:03:17 58° ESE 17:08:28 10° S
IDEFIX/ARIANE 42P 2.5 16:59:42 10° SSE 17:04:54 79° ENE 17:10:06 10° NNW
Abrixas 4.4 17:02:18 10° W 17:04:57 30° SSW 17:07:35 10° SE
Intercosmos 25 3.5 17:02:28 10° N 17:05:26 33° ENE 17:08:30 10° SE
Timation 2 Rocket 4.2 16:59:06 10° NNW 17:05:58 86° ENE 17:12:53 10° SSE
Cosmos 1833 Rocket 2.6 17:01:07 10° NNW 17:06:46 69° ENE 17:12:22 10° SE
Okean 1 3.3 17:02:47 10° S 17:06:51 81° E 17:10:56 10° N
Cosmos 1238 Rocket 2.9 17:05:33 10° SSW 17:08:31 57° W 17:11:52 10° N
Cosmos 1346 Rocket 2.7 17:06:22 10° S 17:10:12 60° E 17:14:02 10° NNE
Cosmos 1536 Rocket 3.6 17:06:11 10° S 17:10:40 86° WNW 17:15:10 10° N
Meteor 2-21 Rocket 4.4 17:07:05 10° N 17:13:14 63° ENE 17:19:19 10° SSE
USA 234 3.5 17:08:52 15° ENE 17:14:20 55° SE 17:20:43 10° SSW
Cosmos 2082 Rocket 2.2 17:10:22 10° NNW 17:16:04 89° WSW 17:21:46 10° SSE
Cosmos 2058 Rocket 4.4 17:16:21 10° NNE 17:25:45 - SE 17:19:08 20° ENE
YAOGAN 1 2.7 17:16:08 10° S 17:20:27 79° WSW 17:24:50 10° NNW
Cosmos 1500 3.6 17:19:24 10° NNW 17:23:13 64° W 17:27:02 10° S
Cosmos 1743 2.6 17:21:54 10° N 17:25:47 65° E 17:29:36 10° SSE
CZ-2C R/B 3.0 17:22:59 10° S 17:28:00 65° WSW 17:33:10 10° NNW
Timation 1 Rocket 4.3 17:23:14 10° SSW 17:29:06 64° ESE 17:33:51 16° NE
NOSS 3-4 (A) 3.7 17:22:16 10° NW 17:29:13 74° NE 17:36:36 10° SE
COSMOS 2441 4.3 17:24:24 10° SSE 17:29:15 76° ENE 17:34:11 10° N
NOSS 3-4 (C) 3.7 17:22:22 10° NW 17:29:18 74° NE 17:36:42 10° SE
MONITOR-E 4.1 17:26:16 10° SSE 17:29:27 72° ENE 17:32:39 10° N
Nadezhda 3 Rocket 3.9 17:25:03 10° S 17:31:15 74° E 17:37:32 10° NNE
NOSS 3-3 (A) 4.4 17:32:07 10° SW 17:38:21 63° NW 17:43:49 16° NE
NOSS 3-3 (C) 4.4 17:32:13 10° SW 17:38:27 64° NW 17:43:54 16° NE
Meteor 1-19 Rocket 4.2 17:35:19 10° S 17:41:05 69° E 17:46:56 10° NNE
SL-8 R/B 3.6 17:36:53 10° W 17:41:41 80° N 17:43:47 34° ENE
Cosmos 407 Rocket 3.6 17:36:58 10° NNW 17:41:57 49° ENE 17:46:57 10° SE
SKYMED 2 3.7 17:39:26 22° NNE 17:42:02 52° E 17:46:16 10° S
Cosmos 1484 Rocket 2.6 17:42:42 10° SSE 17:46:26 89° W 17:50:11 10° NNW
Cosmos 2056 Rocket 3.8 17:42:08 10° S 17:47:14 47° ESE 17:49:19 31° NE
ERBS 3.2 17:44:28 10° NW 17:47:17 34° NNE 17:47:17 34° NNE
GRACE-2 4.0 17:46:13 10° S 17:49:00 71° W 17:49:48 40° NNW
GRACE-1 4.1 17:46:39 10° S 17:49:24 68° W 17:50:18 38° NNW
Cosmos 676 Rocket 4.2 17:48:20 10° NNW 17:53:21 45° ENE 17:55:05 33° ESE
Meteor 2-9 Rocket 4.0 17:48:43 10° N 17:54:11 73° ENE 17:59:30 10° SSE
Meteor 1-15 Rocket 4.3 17:48:37 10° N 17:54:29 61° ENE 18:00:13 10° SSE
Cosmos 2369 Rocket 3.8 17:52:51 10° SSE 17:54:58 18° SE 17:54:58 18° SE
BREEZE-M R/B 4.0 17:46:58 10° WSW 17:57:03 87° NNW 17:59:07 39° ENE
Cosmos 1954 Rocket 4.3 17:52:52 10° N 17:57:44 39° ENE 17:57:49 39° ENE
Okean 2 3.9 17:53:51 10° SSE 17:57:07 40° ESE 17:57:07 40° ESE
Cosmos 1892 Rocket 4.1 17:55:19 10° SSE 17:58:39 39° ESE 17:58:39 39° ESE
Cosmos 1624 Rocket 3.9 17:54:53 10° S 18:00:01 64° ESE 18:02:04 36° NE
NOAA 12 4.0 17:56:34 10° SSE 18:01:46 64° ENE 18:06:58 10° N
Cosmos 1726 Rocket 3.4 17:58:10 10° N 18:02:38 67° E 18:07:04 10° SSE
Meteor 1-23 Rocket 4.1 17:58:05 10° S 18:03:43 66° E 18:07:33 21° NNE
Meteor 2-4 Rocket 3.4 17:59:49 10° S 18:05:09 77° E 18:09:04 19° NNE
Okean 1-7 Rocket 4.0 18:01:08 10° SSW 18:05:35 62° WNW 18:09:39 12° N
Cosmos 1371 Rocket 4.0 18:00:39 10° SSW 18:06:02 86° ESE 18:08:54 29° NNE
CZ-4 R/B 4.4 18:06:06 10° SW 18:08:55 18° W 18:11:43 10° NW
Tiangong 1 2.5 18:07:04 10° WSW 18:09:19 32° SSW 18:09:19 32° SSW
Cosmos 1934 Rocket 3.9 18:04:43 10° N 18:10:57 89° W 18:17:16 10° S
Meteor 2-8 Rocket 4.3 18:05:28 10° S 18:11:30 70° E 18:17:04 13° NNE
ISS -1.8 18:08:38 10° WNW 18:10:47 30° NNW 18:10:47 30° NNW
Cosmos 1140 Rocket 4.4 18:07:24 10° N 18:10:35 30° NNE 18:10:35 30° NNE
BREEZE-M DEB (TANK) 3.3 18:10:05 10° WNW 18:15:38 69° NNW 18:15:38 69° NNW
Cosmos 1606 Rocket 3.9 18:17:42 10° NNW 18:22:10 66° W 18:26:35 10° S
METEOR-M 4.0 18:23:08 10° SSE 18:28:29 89° WSW 18:33:53 10° NNW
NOSS 2-1 (D) 4.1 18:25:13 10° WSW 18:29:03 49° NW 18:29:24 48° NNW
NOSS 2-1 (C) 4.1 18:25:53 10° WSW 18:29:44 50° NW 18:30:04 49° NNW
COSMO-SKYMED 1 3.3 18:28:03 27° N 18:30:06 50° WNW 18:34:18 10° SW
GEOS 3 Rocket 3.5 18:36:11 64° SSE 18:36:59 83° SW 18:42:08 10° NW
Cosmos 1666 4.4 18:33:52 10° NNW 18:37:23 33° W 18:40:53 10° SSW
Cosmos 2278 Rocket 4.2 18:33:51 10° W 18:38:09 22° NW 18:41:54 12° N
Cosmos 1025 Rocket 4.2 18:36:27 10° SSW 18:40:36 41° WNW 18:42:27 27° NNW
Cosmos 1153 Rocket 4.3 18:42:59 10° N 18:49:11 88° E 18:55:19 10° S
Cosmos 1605 Rocket 4.5 18:50:13 10° NNW 18:56:24 59° W 19:02:26 10° S
USA 234 3.5 18:56:13 52° NNE 18:57:25 61° NNW 19:03:49 10° WSW
CZ-3B DEB 3.6 18:55:50 10° W 19:01:38 55° N 19:04:32 44° NE
Cosmos 2369 Rocket 4.1 19:34:53 10° SW 19:36:50 22° SW 19:36:50 22° SW
FALCON 9 R/B 4.3 19:36:59 10° W 19:48:39 29° SSW 19:49:07 29° SSW
